Location: Sungai Dangang
(2.7500°N, 113.8333°E)
Time: 05:54:30
(UTC+00:00)

Ariane H10 - Pass Details

Date: 16 May 2021
Orbit: 286 x 21953 km, 7.3° (Epoch: 14 June)

Event Time Altitude Azimuth Distance (km) Brightness Sun altitude
Exits shadow 21:10:03 12° 168° (SSE) 1,015 4.1 -15.8°
Drops below altitude 10° 21:10:45 10° 150° (SSE) 1,181 4.6 -15.6°
Sets 21:13:54 0° 116° (ESE) 2,581 6.9 -14.9°
